Humidity-temperature Sensor

Selected Measurement Type: Air Temperature

 
Air Temperature [°C]     6 entries per hour
Showing data from 1/16/2021 (00:00:00 Z) to 1/15/2021 (00:01:00 Z)
Previous Next [ Day | 3-Days | 7-Days ]
First Last
Prev [ Day | 3-Days | 7-Days ] Next
First Last

Start Time:     :
End Time:     :     
Time (in GMT) :00 :50 :40 :30 :20 :10
Previous Next [ Day | 3-Days | 7-Days ]
First Last
Prev [ Day | 3-Days | 7-Days ] Next
First Last


123 => good data
MM => data is determined as missing
-- => data not received/configured
Back to Top Back to Top
1/16/2021 00:00 to 23:10 23.69 23.73 23.67 23.71 23.77 23.78
1/15/2021 23:00 to 22:10 23.75 23.80 23.79 23.93 24.13 24.41
1/15/2021 22:00 to 21:10 24.48 24.48 24.63 24.60 24.08 24.11
1/15/2021 21:00 to 20:10 24.64 24.43 24.73 24.55 24.51 24.46
1/15/2021 20:00 to 19:10 24.36 24.46 24.36 24.24 24.23 24.25
1/15/2021 19:00 to 18:10 24.25 24.33 24.24 23.97 24.43 24.37
1/15/2021 18:00 to 17:10 24.19 23.95 24.04 23.74 23.56 22.98
1/15/2021 17:00 to 16:10 22.93 23.08 23.13 23.51 23.53 23.68
1/15/2021 16:00 to 15:10 24.14 23.68 23.32 23.25 23.27 23.37
1/15/2021 15:00 to 14:10 23.52 23.71 23.54 23.56 23.66 23.47
1/15/2021 14:00 to 13:10 23.26 23.20 23.08 22.96 22.92 22.86
1/15/2021 13:00 to 12:10 22.69 22.62 22.59 22.55 22.58 22.57
1/15/2021 12:00 to 11:10 22.60 22.61 22.60 22.56 22.60 22.60
1/15/2021 11:00 to 10:10 22.61 22.59 22.64 22.64 22.63 22.65
1/15/2021 10:00 to 9:10 22.64 22.67 22.65 22.67 22.68 22.70
1/15/2021 09:00 to 8:10 22.70 22.70 22.69 22.68 22.69 22.69
1/15/2021 08:00 to 7:10 22.71 22.70 22.73 22.78 22.80 22.82
1/15/2021 07:00 to 6:10 22.82 22.86 22.88 22.91 22.94 22.93
1/15/2021 06:00 to 5:10 22.95 22.97 22.98 23.00 23.00 23.00
1/15/2021 05:00 to 4:10 23.02 23.01 23.02 23.01 23.01 22.99
1/15/2021 04:00 to 3:10 23.01 23.02 23.04 23.07 23.09 23.07
1/15/2021 03:00 to 2:10 23.08 23.11 23.13 23.11 23.13 23.18
1/15/2021 02:00 to 1:10 23.17 23.09 23.18 23.14 23.20 23.19
1/15/2021 01:00 to 0:10 23.12 23.15 23.13 23.17 23.28 23.26